GW7350 Weather Reports


Display with metric or nautical units.
time (UTC)temp
F
wind
direction
speed
MPH
gust
MPH
rain 1hr
in
rain 24hr
in
rain mn
in
humidity
%
barometer
mb
20260906024000 74 350 0.0 0.0 0.00 0.06 0.00 99 981.7
20260906023500 74 285 0.0 0.0 0.00 0.06 0.00 99 981.7
20260906023000 74 285 0.0 0.0 0.00 0.06 0.00 99 981.4
20260906022500 74 234 1.0 2.0 0.00 0.06 0.00 99 981.4
20260906022000 74 165 0.0 0.0 0.00 0.06 0.00 99 981.4
20260906021502 74 191 1.0 1.0 0.00 0.06 0.00 99 981.0
20260906021000 74 203 0.0 0.0 0.00 0.06 0.00 99 981.0
20260906020000 74 253 1.0 1.0 0.00 0.06 0.00 99 980.7
20260906015500 73 326 0.0 0.0 0.00 0.06 0.00 99 981.0
20260906015000 73 326 0.0 0.0 0.00 0.06 0.00 99 980.7
20260906014500 74 337 1.0 1.0 0.00 0.06 0.00 99 980.7
20260906014000 74 313 0.0 0.0 0.00 0.06 0.00 99 980.7
20260906013500 74 314 0.0 0.0 0.00 0.06 0.00 99 981.0
20260906013000 74 313 0.0 0.0 0.00 0.06 0.00 99 981.0
20260906012500 74 313 0.0 0.0 0.00 0.06 0.00 99 981.0
20260906012000 74 313 0.0 0.0 0.00 0.06 0.00 99 980.7
20260906011500 74 313 0.0 0.0 0.00 0.06 0.00 99 980.7
20260906011000 74 313 0.0 0.0 0.00 0.06 0.00 98 980.7
20260906010500 74 313 0.0 0.0 0.00 0.06 0.00 98 980.7
20260906010000 74 313 0.0 0.0 0.00 0.06 0.00 98 980.7
20260906005000 74 296 0.0 0.0 0.00 0.06 0.00 98 980.7
20260906004500 75 315 1.0 1.0 0.00 0.06 0.00 97 980.7
20260906003000 75 205 0.0 0.0 0.00 0.06 0.00 97 980.4
20260906002500 76 205 0.0 0.0 0.00 0.06 0.00 96 980.4
20260906002000 76 205 0.0 0.0 0.00 0.06 0.00 96 980.4
20260906001500 76 205 0.0 0.0 0.00 0.06 0.00 96 980.4
20260906001000 76 205 0.0 0.0 0.00 0.06 0.00 95 980.0
20260906000500 76 205 0.0 0.0 0.00 0.06 0.00 95 980.4
20260906000000 76 205 0.0 0.0 0.00 0.06 0.00 94 980.4
20260905235500 77 205 0.0 0.0 0.00 0.06 0.00 93 980.0
20260905235000 77 205 0.0 0.0 0.00 0.06 0.00 93 980.0
20260905234500 77 205 0.0 0.0 0.00 0.06 0.00 92 980.4
20260905234000 77 205 0.0 0.0 0.00 0.06 0.00 93 980.0
20260905233000 78 206 0.0 0.0 0.00 0.06 0.00 92 980.0
20260905232000 78 12 0.0 0.0 0.00 0.06 0.00 93 980.0
20260905231500 78 219 0.0 0.0 0.00 0.06 0.00 92 980.0
20260905231000 78 196 0.0 1.0 0.00 0.06 0.00 92 979.7
20260905230500 79 236 0.0 0.0 0.00 0.06 0.00 90 980.0
20260905225500 80 206 0.0 0.0 0.00 0.06 0.00 87 979.7
20260905225000 80 198 1.0 1.0 0.00 0.06 0.00 86 980.0
20260905224500 80 331 1.0 1.0 0.00 0.06 0.00 85 979.7
20260905224000 80 304 2.0 3.0 0.00 0.06 0.00 85 980.0
20260905223500 81 350 0.0 1.0 0.00 0.06 0.00 86 979.7
20260905223000 81 351 0.0 1.0 0.00 0.06 0.00 85 979.7
20260905222500 81 1 2.0 3.0 0.00 0.06 0.00 84 979.7
20260905222000 81 351 0.0 0.0 0.00 0.06 0.00 86 979.7
20260905221000 80 312 0.0 1.0 0.00 0.06 0.00 88 979.7
20260905220500 80 329 0.0 0.0 0.00 0.06 0.00 87 980.0
20260905220000 80 336 1.0 1.0 0.00 0.06 0.00 88 980.0
20260905215500 79 284 0.0 1.0 0.00 0.06 0.00 89 980.4
20260905214000 79 307 0.0 0.0 0.00 0.06 0.00 91 980.4
20260905213500 79 308 0.0 0.0 0.00 0.06 0.00 89 980.7
20260905213000 79 233 0.0 0.0 0.00 0.06 0.00 91 980.4
20260905212500 78 233 0.0 0.0 0.00 0.06 0.00 92 980.4
20260905212000 78 234 0.0 0.0 0.00 0.06 0.00 93 980.4
20260905211500 77 234 0.0 0.0 0.00 0.06 0.00 92 980.7
20260905211000 78 234 0.0 0.0 0.00 0.06 0.00 92 980.7
20260905210500 77 233 0.0 0.0 0.00 0.06 0.00 93 980.7
20260905205500 77 29 0.0 0.0 0.00 0.06 0.00 93 980.7
20260905205000 77 332 0.0 1.0 0.00 0.06 0.00 94 980.7
20260905204500 76 314 0.0 0.0 0.00 0.06 0.00 95 980.7
20260905204000 76 337 0.0 0.0 0.00 0.06 0.00 97 981.0
20260905203500 75 130 0.0 0.0 0.00 0.06 0.00 96 981.4
20260905203000 75 51 0.0 0.0 0.00 0.06 0.00 97 981.4
20260905202500 75 52 0.0 0.0 0.00 0.06 0.00 96 981.7
20260905202000 75 46 0.0 0.0 0.00 0.06 0.00 96 981.7
20260905201500 75 358 0.0 0.0 0.00 0.06 0.00 97 981.7
20260905201000 75 293 0.0 0.0 0.00 0.06 0.00 99 981.7
20260905200000 74 267 0.0 0.0 0.00 0.06 0.00 98 981.4
20260905195500 74 7 0.0 0.0 0.00 0.06 0.00 99 981.4
20260905195000 74 186 1.0 1.0 0.00 0.06 0.00 99 981.0
20260905194500 74 3 0.0 0.0 0.00 0.06 0.00 99 980.7
20260905194000 74 291 2.0 3.0 0.00 0.06 0.00 99 981.0
20260905193500 74 86 1.0 1.0 0.00 0.06 0.00 98 980.4
20260905193000 74 100 1.0 1.0 0.05 0.06 0.00 97 980.7
20260905192500 74 304 0.0 1.0 0.12 0.06 0.00 97 980.4
20260905192000 74 216 1.0 1.0 0.07 0.05 0.00 95 981.0
20260905191500 74 311 2.0 3.0 0.12 0.04 0.00 94 981.0
20260905191000 74 12 4.0 6.0 0.24 0.04 0.00 92 981.4
20260905190000 78 352 4.0 6.0 0.00 0.00 0.00 81 981.4
20260905185500 81 28 2.0 2.0 0.00 0.00 0.00 78 981.7
20260905185000 89 310 10.0 15.0 0.00 0.00 0.00 70 981.7
20260905184500 90 19 3.0 3.0 0.00 0.00 0.00 66 981.4
20260905183500 91 2 0.0 1.0 0.00 0.00 0.00 62 981.0
20260905182000 90 353 0.0 0.0 0.00 0.00 0.00 66 980.4
20260905181500 90 353 0.0 0.0 0.00 0.00 0.00 65 980.4
20260905181000 91 353 0.0 0.0 0.00 0.00 0.00 64 981.0
20260905180500 91 349 0.0 0.0 0.00 0.00 0.00 64 980.7
20260905180000 91 343 0.0 0.0 0.00 0.00 0.00 66 980.7
20260905175500 91 293 0.0 1.0 0.00 0.00 0.00 63 981.0
20260905175000 92 59 0.0 1.0 0.00 0.00 0.00 64 981.0
20260905174500 92 201 2.0 3.0 0.00 0.00 0.00 60 981.0
20260905174000 92 231 0.0 1.0 0.00 0.00 0.00 64 981.0
20260905173500 93 252 0.0 1.0 0.00 0.00 0.00 60 981.4
20260905173000 95 121 0.0 1.0 0.00 0.00 0.00 60 981.0
20260905172500 95 289 2.0 2.0 0.00 0.00 0.00 57 981.4
20260905172000 95 297 0.0 0.0 0.00 0.00 0.00 61 981.4
20260905171000 93 192 1.0 1.0 0.00 0.00 0.00 61 981.4
20260905170500 91 205 0.0 1.0 0.00 0.00 0.00 65 981.7
20260905165500 93 277 1.0 1.0 0.00 0.00 0.00 59 982.1
20260905165000 94 103 1.0 1.0 0.00 0.00 0.00 59 981.7
20260905164500 95 66 0.0 0.0 0.00 0.00 0.00 61 982.1
20260905164000 94 131 0.0 0.0 0.00 0.00 0.00 60 981.7
20260905163500 94 5 1.0 1.0 0.00 0.00 0.00 60 982.1
20260905163000 94 164 2.0 2.0 0.00 0.00 0.00 59 982.1
20260905162500 94 64 0.0 0.0 0.00 0.00 0.00 64 982.1
20260905162000 93 279 1.0 1.0 0.00 0.00 0.00 62 982.1
20260905161500 93 354 0.0 0.0 0.00 0.00 0.00 63 982.1
20260905160500 92 134 0.0 0.0 0.00 0.00 0.00 65 982.4
20260905160000 92 216 0.0 1.0 0.00 0.00 0.00 69 982.4
20260905155500 92 14 0.0 0.0 0.00 0.00 0.00 71 982.4
20260905155000 91 191 0.0 1.0 0.00 0.00 0.00 71 982.1
20260905154500 90 348 0.0 0.0 0.00 0.00 0.00 73 982.4
20260905154000 89 340 1.0 1.0 0.00 0.00 0.00 72 982.4
20260905153500 88 98 0.0 0.0 0.00 0.00 0.00 77 982.4
20260905153000 88 97 0.0 1.0 0.00 0.00 0.00 78 982.7
20260905152000 88 297 0.0 1.0 0.00 0.00 0.00 75 982.4
20260905151500 87 326 1.0 2.0 0.00 0.00 0.00 77 982.7
20260905151000 87 354 1.0 2.0 0.00 0.00 0.00 79 982.7
20260905150500 87 350 0.0 0.0 0.00 0.00 0.00 80 982.7
20260905150000 87 353 0.0 1.0 0.00 0.00 0.00 79 982.4
20260905145500 86 353 0.0 0.0 0.00 0.00 0.00 79 982.4
20260905145000 86 281 0.0 0.0 0.00 0.00 0.00 79 982.4
20260905144000 85 10 0.0 0.0 0.00 0.00 0.00 80 982.4
20260905143500 85 11 0.0 0.0 0.00 0.00 0.00 79 982.7
20260905143000 84 323 0.0 0.0 0.00 0.00 0.00 79 982.7
20260905142000 84 356 0.0 0.0 0.00 0.00 0.00 83 982.4
20260905141000 83 258 0.0 0.0 0.00 0.00 0.00 83 982.7
20260905140500 82 256 0.0 1.0 0.00 0.00 0.00 82 982.4
20260905140000 82 6 0.0 0.0 0.00 0.00 0.00 84 982.7
20260905135000 82 0 1.0 1.0 0.00 0.00 0.00 82 982.7
20260905134500 82 20 0.0 0.0 0.00 0.00 0.00 84 983.1
20260905134000 81 250 0.0 1.0 0.00 0.00 0.00 86 983.1
20260905133000 80 11 0.0 0.0 0.00 0.00 0.00 87 983.1
20260905131500 79 0 0.0 1.0 0.00 0.00 0.00 90 983.1
20260905131000 79 1 0.0 0.0 0.00 0.00 0.00 90 983.1
20260905130500 78 284 0.0 0.0 0.00 0.00 0.00 91 983.1
20260905125000 77 342 0.0 0.0 0.00 0.00 0.00 92 983.1
20260905124500 77 357 0.0 1.0 0.00 0.00 0.00 94 983.1
20260905124000 76 299 0.0 0.0 0.00 0.00 0.00 96 983.1
20260905123500 75 217 0.0 0.0 0.00 0.00 0.00 99 983.1
20260905123000 75 217 0.0 0.0 0.00 0.00 0.00 99 983.1
20260905122500 74 217 0.0 0.0 0.00 0.00 0.00 99 982.7
20260905122000 74 217 0.0 0.0 0.00 0.00 0.00 99 982.7
20260905121500 74 217 0.0 0.0 0.00 0.00 0.00 99 982.7
20260905121000 74 218 0.0 0.0 0.00 0.00 0.00 99 983.1
20260905120500 74 217 0.0 0.0 0.00 0.00 0.00 99 982.7
20260905120000 74 217 0.0 0.0 0.00 0.00 0.00 99 982.7
20260905115500 74 217 0.0 0.0 0.00 0.00 0.00 99 982.4
20260905115000 73 217 0.0 0.0 0.00 0.00 0.00 99 982.4
20260905114500 73 217 0.0 0.0 0.00 0.00 0.00 99 982.4
20260905113500 73 217 0.0 0.0 0.00 0.00 0.00 99 982.4
20260905113000 73 217 0.0 0.0 0.00 0.00 0.00 99 982.4
20260905112500 73 216 0.0 0.0 0.00 0.00 0.00 99 982.1
20260905112000 73 216 0.0 0.0 0.00 0.00 0.00 99 982.4
20260905111500 73 217 0.0 0.0 0.00 0.00 0.00 99 982.4
20260905110500 73 217 0.0 0.0 0.00 0.00 0.00 99 982.1
20260905110000 73 217 0.0 0.0 0.00 0.00 0.00 99 982.1
20260905105500 73 217 0.0 0.0 0.00 0.00 0.00 99 982.1
20260905104500 73 217 0.0 0.0 0.00 0.00 0.00 99 981.7
20260905104000 73 217 0.0 0.0 0.00 0.00 0.00 99 981.7
20260905103500 74 217 0.0 0.0 0.00 0.00 0.00 99 981.7
20260905103000 74 217 0.0 0.0 0.00 0.00 0.00 99 981.7
20260905102500 74 216 0.0 0.0 0.00 0.00 0.00 99 981.7
20260905102000 73 216 0.0 0.0 0.00 0.00 0.00 99 981.4
20260905101000 73 217 0.0 0.0 0.00 0.00 0.00 99 981.7
20260905100500 74 217 0.0 0.0 0.00 0.00 0.00 99 981.4
20260905100000 73 216 0.0 0.0 0.00 0.00 0.00 99 981.4
20260905095500 74 217 0.0 1.0 0.00 0.00 0.00 99 981.4
20260905095000 74 220 1.0 1.0 0.00 0.00 0.00 99 981.4
20260905094500 74 287 0.0 0.0 0.00 0.00 0.00 99 981.4
20260905094000 74 287 0.0 0.0 0.00 0.00 0.00 99 981.7
20260905093500 74 287 0.0 0.0 0.00 0.00 0.00 99 981.7
20260905093000 74 287 0.0 0.0 0.00 0.00 0.00 99 981.7
20260905092500 74 287 0.0 0.0 0.00 0.00 0.00 99 981.7
20260905092000 74 287 0.0 0.0 0.00 0.00 0.00 99 981.7
20260905091500 74 287 0.0 0.0 0.00 0.00 0.00 99 981.7
20260905091000 74 287 0.0 0.0 0.00 0.00 0.00 99 981.7
20260905090500 74 287 0.0 0.0 0.00 0.00 0.00 99 981.7
20260905085000 74 287 0.0 0.0 0.00 0.00 0.00 98 982.1
20260905084500 74 287 0.0 0.0 0.00 0.00 0.00 98 981.7
20260905084000 74 287 0.0 0.0 0.00 0.00 0.00 98 981.7
20260905083500 74 287 0.0 0.0 0.00 0.00 0.00 98 981.7
20260905083000 74 287 0.0 0.0 0.00 0.00 0.00 98 982.1
20260905082500 74 287 0.0 0.0 0.00 0.00 0.00 98 982.1
20260905082000 74 287 0.0 0.0 0.00 0.00 0.00 97 982.1
20260905081500 74 286 0.0 0.0 0.00 0.00 0.00 98 982.1
20260905081000 74 286 0.0 0.0 0.00 0.00 0.00 98 982.1
20260905080500 74 287 0.0 0.0 0.00 0.00 0.00 97 982.1
20260905080000 74 287 0.0 0.0 0.00 0.00 0.00 97 982.4
20260905075500 74 287 0.0 0.0 0.00 0.00 0.00 97 982.4
20260905074000 75 287 0.0 0.0 0.00 0.00 0.00 96 982.4
20260905073500 75 286 0.0 0.0 0.00 0.00 0.00 96 982.4
20260905073000 75 287 0.0 0.0 0.00 0.00 0.00 96 982.4
20260905072500 75 287 0.0 0.0 0.00 0.00 0.00 96 982.4
20260905072000 75 287 0.0 0.0 0.00 0.00 0.00 96 982.4
20260905071500 75 286 0.0 0.0 0.00 0.00 0.00 96 982.7
20260905071012 75 286 0.0 0.0 0.00 0.00 0.00 96 982.7
20260905065500 75 281 1.0 1.0 0.00 0.00 0.00 96 982.7
20260905065000 75 194 0.0 0.0 0.00 0.00 0.00 96 982.7
20260905064500 75 194 0.0 0.0 0.00 0.00 0.00 95 982.7
20260905064000 76 195 0.0 0.0 0.00 0.00 0.00 95 982.7
20260905063500 76 193 0.0 0.0 0.00 0.00 0.00 95 982.7
20260905063000 76 193 0.0 0.0 0.00 0.00 0.00 95 983.1
20260905062500 76 193 0.0 1.0 0.00 0.00 0.00 94 982.7
20260905062000 76 193 0.0 1.0 0.00 0.00 0.00 94 983.1
20260905061500 76 193 0.0 0.0 0.00 0.00 0.00 94 982.7
20260905061000 76 193 0.0 0.0 0.00 0.00 0.00 93 983.1
20260905060500 76 193 0.0 0.0 0.00 0.00 0.00 93 983.1
20260905060000 76 193 0.0 0.0 0.00 0.00 0.00 93 983.1
20260905055500 76 193 0.0 0.0 0.00 0.00 0.00 92 983.1
20260905055000 76 193 0.0 0.0 0.00 0.00 0.00 92 983.1
20260905054000 77 192 0.0 0.0 0.00 0.00 0.00 92 983.1
20260905053500 77 192 0.0 0.0 0.00 0.00 0.00 92 983.1
20260905053000 77 191 0.0 0.0 0.00 0.00 0.00 91 983.1
20260905052500 77 192 0.0 0.0 0.00 0.00 0.00 91 983.1
20260905052000 77 192 0.0 0.0 0.00 0.00 0.00 91 983.1
20260905051500 77 192 0.0 0.0 0.00 0.00 0.00 91 983.4
20260905051000 78 191 0.0 0.0 0.00 0.00 0.00 92 983.1
20260905050500 78 191 0.0 0.0 0.00 0.00 0.00 92 983.1
20260905050000 78 191 0.0 0.0 0.00 0.00 0.00 92 983.1
20260905045500 78 191 0.0 0.0 0.00 0.00 0.00 92 983.4
20260905045000 78 191 0.0 0.0 0.00 0.00 0.00 91 983.1
20260905044000 78 191 0.0 0.0 0.00 0.00 0.00 91 983.4
20260905043500 78 191 0.0 0.0 0.00 0.00 0.00 91 983.4
20260905043000 79 191 0.0 0.0 0.00 0.00 0.00 92 983.1
20260905042500 78 191 0.0 0.0 0.00 0.00 0.00 91 983.4
20260905042000 78 191 0.0 0.0 0.00 0.00 0.00 91 983.1
20260905041500 79 191 0.0 0.0 0.00 0.00 0.00 91 983.1
20260905041000 79 191 0.0 0.0 0.00 0.00 0.00 91 983.1
20260905040500 79 191 0.0 0.0 0.00 0.00 0.00 91 983.1
20260905040000 79 191 0.0 0.0 0.00 0.00 0.00 92 983.1
20260905035500 78 191 0.0 0.0 0.00 0.00 0.00 92 983.1
20260905035000 78 191 0.0 0.0 0.00 0.00 0.00 92 983.1
20260905034500 78 191 0.0 0.0 0.00 0.00 0.00 92 983.1
20260905033500 79 191 0.0 0.0 0.00 0.00 0.00 92 983.1
20260905033000 79 191 0.0 0.0 0.00 0.00 0.00 92 983.1
20260905032500 79 191 0.0 0.0 0.00 0.00 0.00 91 983.1
20260905032000 79 191 0.0 0.0 0.00 0.00 0.00 91 983.1
20260905031000 80 191 0.0 0.0 0.00 0.00 0.00 90 983.4
20260905030500 80 191 0.0 0.0 0.00 0.00 0.00 90 983.4
20260905030000 80 191 0.0 0.0 0.00 0.00 0.00 90 983.4
20260905025500 80 190 0.0 0.0 0.00 0.00 0.00 90 983.4
20260905025000 81 190 0.0 0.0 0.00 0.00 0.00 89 983.4